Regional Weather Roundup
Issued by NWS

Current Version | Previous Version | Text Only | Print | Product List | Glossary On
Versions: 1 2 3 4 5 6 7 8 9 10 11 12 13 14 15 16 17 18 19 20 21 22 23 24 25 26 27 28 29 30 31 32 33 34 35 36 37 38 39 40 41 42 43 44 45 46 47 48 49 50
000
ASUS45 KPSR 270110
RWRAZ

ARIZONA HOURLY REGIONAL WEATHER ROUNDUP
NATIONAL WEATHER SERVICE PHOENIX AZ
600 PM MST WED APR 26 2017

NOTE: FAIR INDICATES FEW OR NO CLOUDS BELOW 12,000 FEET WITH NO
SIGNIFICANT WEATHER AND/OR OBSTRUCTIONS TO VISIBILITY.

AZZ001>003-036-270200-
NORTHWEST ARIZONA

CITY           SKY/WX    TMP DP  RH WIND       PRES   REMARKS
BULLHEAD CITY  MOSUNNY   90  34  13 S21       29.63F
KINGMAN        MOSUNNY   75  27  17 SW28G38   29.77F
$$

AZZ004>008-015-016-018-270200-
NORTH CENTRAL ARIZONA

CITY           SKY/WX    TMP DP  RH WIND       PRES   REMARKS
GRAND CANYON   MOSUNNY   61  29  29 W10G22    29.89R
WILLIAMS       MOSUNNY   63  25  23 W17       29.92R
PRESCOTT       PTSUNNY   69  24  18 SW12      29.87S
FLAGSTAFF      MOSUNNY   60  26  27 W17G32    29.90S
PAYSON         PTSUNNY   68  21  17 SW9       29.89F
PAGE           MOSUNNY   71  29  21 W14G25    29.71S
$$

AZZ009>014-017-270200-
NORTHEAST ARIZONA

CITY           SKY/WX    TMP DP  RH WIND       PRES   REMARKS
WINSLOW        MOSUNNY   74  30  19 W21G36    29.78F
SAINT JOHNS    PTSUNNY   67  17  14 W18G25    29.81S
WINDOW ROCK    PTSUNNY   59  19  21 SW16G23   29.83F
SHOW LOW       PTSUNNY   63  23  22 SW22      29.90S
$$

AZZ540-542>544-546-548-270200-
GREATER PHOENIX AREA

CITY           SKY/WX    TMP DP  RH WIND       PRES   REMARKS
PHOENIX        PTSUNNY   87  24  10 SW15G21   29.67F
BUCKEYE        MOSUNNY   86  23  10 SW13      29.69F
GLENDALE       PTSUNNY   88  23   9 S14G21    29.69F
LUKE AFB       CLOUDY    87  25  10 SW20      29.67F
DEER VALLEY    CLOUDY    85  23  10 SW15      29.69F
SCOTTSDALE     PTSUNNY   85  22  10 SW9G17    29.71F
MESA-FALCON    PTSUNNY  N/A N/A N/A SW14      29.70F
MESA-GATEWAY   MOSUNNY   84  25  11 SW10G18   29.72F
CHANDLER       SUNNY     86  21   9 SW8       29.70F
$$

AZZ539-553-270200-
SOUTHWEST MARICOPA COUNTY AND PINAL COUNTY

CITY           SKY/WX    TMP DP  RH WIND       PRES   REMARKS
CASA GRANDE    MOSUNNY   86  24  10 W12       29.72F
GILA BEND      MOSUNNY   90  20   8 W14       29.68F
$$

AZZ503-504-507>509-270200-
SOUTHEAST ARIZONA

CITY           SKY/WX    TMP DP  RH WIND       PRES   REMARKS
TUCSON         SUNNY     83  22  10 W7        29.81F
DAVIS-MONTHAN  MOSUNNY   82  22  11 NW10      29.80F
RYAN FIELD     SUNNY     84  23  10 W12       29.80F
NOGALES        SUNNY     79  22  12 W10       29.87S
SIERRA VISTA   SUNNY     75  20  12 NW16      29.92R
DOUGLAS        SUNNY     78  18  10 NW21G28   29.86R
SAFFORD        MOSUNNY   78  19  11 W20G28    29.75S
$$

AZZ532-270200-
SOUTHWEST ARIZONA

CITY           SKY/WX    TMP DP  RH WIND       PRES   REMARKS
YUMA           MOSUNNY   91  34  13 SW10      29.67F
$$

CAZ041-043-047-048-061-525>527-560>570-270200-
SOUTHERN CALIFORNIA

CITY           SKY/WX    TMP DP  RH WIND       PRES   REMARKS
DOWNTOWN L.A.  CLOUDY    71  55  56 CALM      29.82S
L.A. AIRPORT   PTSUNNY   64  55  72 W18       29.83S
SAN DIEGO      MOSUNNY   67  56  67 VRB6      29.89S
BURBANK        CLOUDY    82  50  32 N20G28    29.81F
ONTARIO        CLOUDY    71  48  43 W9        29.84R
RIVERSIDE      CLOUDY    72  48  42 W13       29.83S
PALM SPRINGS   PTSUNNY   90  40  17 SE8       29.68F
EL CENTRO NAS  PTSUNNY   90  43  19 SW20      29.66F
IMPERIAL       PTSUNNY   91  49  23 W13       29.64F
BLYTHE         CLOUDY    90  34  13 SW20      29.66S
NEEDLES        PTSUNNY   90  32  12 SW13      29.66F
$$

NVZ020-UTZ003-270200-
SOUTHERN NEVADA-UTAH

CITY           SKY/WX    TMP DP  RH WIND       PRES   REMARKS
LAS VEGAS      PTSUNNY   85  29  13 SW18      29.64F
SALT LAKE CITY LGT RAIN  49  45  86 N9        29.76R
$$

NMZ009-TXZ055-270200-
NEW MEXICO-WEST TEXAS

CITY           SKY/WX    TMP DP  RH WIND       PRES   REMARKS
ALBUQUERQUE    MOCLDY    66  19  16 W15       29.77F
EL PASO        PTCLDY    78  10   7 SW9       29.75F
$$


........................KEY........................
SKY/WX - SKY CONDITION/WEATHER
TMP    - TEMPERATURE IN FAHRENHEIT
DP     - DEW POINT IN FAHRENHEIT
RH     - RELATIVE HUMIDITY IN PERCENT
WIND   - DIRECTION AND SPEED IN MILES PER HOUR (MPH)
VRB    - VARIABLE WIND DIRECTION
PRES   - MEAN SEA LEVEL PRESSURE IN INCHES OF MERCURY
         F - FALLING PRESSURE   R - RISING PRESSURE
         S - STEADY PRESSURE
VSB    - VISIBILITY IN MILES
HX     - HEAT INDEX IN FAHRENHEIT
WCI    - WIND CHILL INDEX IN FAHRENHEIT
TC     - TEMPERATURE IN CELSIUS WHICH IS ALSO KNOWN AS
         TEMPERATURE IN CENTIGRADE
AFB    - AIR FORCE BASE
         LUKE AFB IS LUKE AIR FORCE BASE
         DAVIS-MONTHAN IS DAVIS-MONTHAN AIR FORCE BASE
NAS    - NAVAL AIR STATION
         EL CENTRO NAS IS EL CENTRO NAVAL AIR STATION
N/A    - NOT AVAILABLE




USA.gov is the U.S. government's official web portal to all federal, state and local government web resources and services.